User: anonymous   Login
Location: Unspecified
(0.0000°N, 0.0000°E)
Time: 20:17:31
(UTC+02:00)
Language:

AO-7 - Orbit

View from above orbital plane
View from above orbital plane
View from above satellite
View from above satellite

Ground track
Ground track

The orbit data is extracted from the following two-line orbital elements,

1 07530U 74089B   16181.19067345 -.00000019  00000-0  15588-3 0  9996
2 07530 101.5751 151.6546 0011578 288.9590 142.0337 12.53621910904629
Epoch (UTC): 29 June 2016 04:34:34
Eccentricity: 0.0011578
inclination: 101.5751°
perigee height: 1440 km
apogee height: 1458 km
right ascension of ascending node: 151.6546°
argument of perigee: 288.9590°
revolutions per day: 12.53621910
mean anomaly at epoch: 142.0337°
orbit number at epoch: 90462

The dashed part of the orbit path shows where the satellite is in the earth's shadow,  

DLR